Flag for U.S.A. Weather past 2 weeks in San Luis Obispo, California, U.S.A.

Now
70 °F

Sunny.


Feels Like: 77 °F
Forecast: 49 / 75 °F
Wind: 3 mph from North

Location: San Luis Obispo County-Mc Chesney Field


UV Index: 5 (Moderate)

Visibility: 10 mi


Pressure: 29.85 "Hg

Humidity: 55%

Dew point: 53 °F

Location of San Luis ObispoLocation

Historic Weather in San Luis Obispo

°F

San Luis Obispo temperature yesterday

Maximum temperature yesterday: 74 °F (at 12:56 PM)
Minimum temperature yesterday: 52 °F (at 6:03 AM)
Average temperature yesterday: 58 °F

Past Weeks' High & Low Weather Summary

 TemperatureHumidityPressure
High84 °F (Apr 7, 12:56 PM)100% (Apr 10, 1:04 AM)30.17 "Hg (Apr 10, 1:04 AM)
Low43 °F (Apr 3, 4:56 AM)19% (Apr 8, 1:56 PM)29.87 "Hg (Apr 15, 5:56 PM)
Average58 °F72%30.02 "Hg
* Reported Apr 1 10:56 AM — Apr 16 10:56 AM, San Luis Obispo, Weather by CustomWeather, © 2014

Note: Actual official high and low records may vary slightly from our data, if they occured in-between our weather recording intervals... More about our weather records

Advertising

Historic Weather Conditions — Data for Previous 24 hours

 ConditionsComfort  
Time TempWeatherWind HumidityBarometerVisibility
10:56 AM
Apr 16
62 °FScattered clouds.No wind67%29.88 "Hg10 mi
10:02 AM55 °FScattered clouds.No wind77%29.89 "Hg10 mi
9:56 AM56 °FPartly sunny.No wind81%29.89 "Hg10 mi
8:56 AM51 °FFog.3 mph92%29.90 "Hg6 mi
7:56 AM50 °FFog.No wind93%29.90 "Hg0 mi
6:56 AM50 °FFog.No wind93%29.89 "Hg0 mi
5:56 AM49 °FFog.No wind93%29.88 "Hg1 mi
4:56 AM48 °FFog.No wind93%29.89 "Hg1 mi
3:56 AM48 °FFog.3 mph93%29.88 "Hg0 mi
2:56 AM48 °FFog.No wind89%29.89 "Hg5 mi
1:56 AM49 °FFog.No wind90%29.90 "Hg6 mi
12:56 AM51 °FFog.No wind86%29.90 "Hg6 mi
11:56 PM
Apr 15
52 °FFog.No wind86%29.90 "Hg6 mi
10:56 PM52 °FFog.3 mph89%29.91 "Hg6 mi
9:56 PM53 °FPassing clouds.N/A89%29.91 "Hg7 mi
8:56 PM54 °FClear.14 mph86%29.90 "Hg7 mi
7:56 PM55 °FSunny.16 mph83%29.88 "Hg8 mi
6:56 PM58 °FSunny.17 mph75%29.87 "Hg8 mi
5:56 PM63 °FSunny.18 mph63%29.87 "Hg10 mi
3:56 PM67 °FSunny.20 mph57%29.89 "Hg10 mi
2:56 PM69 °FSunny.22 mph57%29.91 "Hg10 mi
1:56 PM69 °FSunny.22 mph57%29.92 "Hg10 mi
12:56 PM74 °FSunny.13 mph48%29.94 "Hg10 mi
Weather by CustomWeather, © 2014

See weather overview